Home   Weather   Washington Park   Past weeks
Flag for USA

Past Weather in Washington Park, Alabama, USA — Yesterday and Last 2 Weeks

Now
71 °F

Overcast.


Feels Like: 71 °F
Forecast: 80 / 69 °F
Wind: 6 mph from Southwest

Location: Maxwell Air Force Base / Montgomery
Current Time: Sep 25, 2020 at 2:59:55 am
Latest Report: Sep 25, 2020 at 1:56 am
Visibility: 10 mi
Pressure29.89 "Hg
Humidity: 83%
Dew Point: 66 °F
Location of Washington ParkLocation

Past Weather in Washington Park — Graph

°F

Washington Park Temperature Yesterday

Maximum temperature yesterday: 82 °F (at 3:56 pm)
Minimum temperature yesterday: 66 °F (at 7:11 am)
Average temperature yesterday: 73 °F

High & Low Weather Summary for the Past Weeks

 TemperatureHumidityPressure
High91 °F (Sep 11, 2:56 pm)94% (Sep 10, 4:11 pm)30.30 "Hg (Sep 10, 4:11 pm)
Low58 °F (Sep 22, 6:56 am)47% (Sep 20, 2:56 pm)29.64 "Hg (Sep 17, 3:11 am)
Average74 °F76%29.98 "Hg
* Reported Sep 10 1:56 am — Sep 25 1:56 am, Washington Park. Weather by CustomWeather, © 2020

Note: Actual official high and low records may vary slightly from our data, if they occured in-between our weather recording intervals... More about our weather records

Washington Park Weather History for the Previous 24 Hours

Scroll right to see more
 ConditionsComfort  
Time TempWeatherWind HumidityBarometerVisibility
1:56 am
Fri, Sep 25
71 °FOvercast.6 mph83%29.89 "Hg10 mi
12:56 am72 °FMostly cloudy.3 mph82%29.89 "Hg10 mi
11:56 pm
Thu, Sep 24
73 °FOvercast.7 mph79%29.88 "Hg10 mi
10:56 pm74 °FOvercast.5 mph80%29.88 "Hg10 mi
10:26 pm75 °FOvercast.6 mph78%29.87 "Hg10 mi
9:56 pm75 °FOvercast.8 mph78%29.87 "Hg10 mi
8:56 pm76 °FMostly cloudy.3 mph79%29.84 "Hg10 mi
7:56 pm77 °FOvercast.8 mph81%29.82 "Hg10 mi
6:56 pm78 °FPartly cloudy.8 mph84%29.79 "Hg10 mi
5:56 pm80 °FOvercast.15 mph78%29.78 "Hg10 mi
4:56 pm82 °FMostly cloudy.15 mph74%29.78 "Hg10 mi
3:56 pm82 °FScattered clouds.14 mph73%29.78 "Hg10 mi
3:11 pm79 °FMostly cloudy.13 mph79%29.80 "Hg10 mi
2:56 pm79 °FOvercast.14 mph78%29.80 "Hg10 mi
2:31 pm79 °FOvercast.12 mph74%29.81 "Hg10 mi
2:21 pm79 °FLight rain. Overcast.15 mph74%29.81 "Hg10 mi
1:57 pm79 °FOvercast.14 mph74%29.81 "Hg10 mi
1:26 pm79 °FOvercast.13 mph74%29.83 "Hg10 mi
12:56 pm77 °FOvercast.12 mph78%29.84 "Hg10 mi
12:26 pm75 °FOvercast.12 mph78%29.85 "Hg10 mi
11:56 am75 °FOvercast.13 mph79%29.87 "Hg10 mi
10:56 am73 °FOvercast.10 mph81%29.89 "Hg10 mi
10:26 am70 °FOvercast.14 mph88%29.90 "Hg10 mi
9:56 am71 °FMostly cloudy.12 mph85%29.90 "Hg10 mi
9:26 am68 °FCloudy.10 mph94%29.90 "Hg9 mi
9:11 am68 °FDrizzle. Cloudy.12 mph88%29.91 "Hg9 mi
9:05 am68 °FMostly cloudy.10 mph88%29.91 "Hg9 mi
8:34 am68 °FDrizzle. Cloudy.10 mph88%29.91 "Hg10 mi
7:56 am67 °FDrizzle. Mostly cloudy.6 mph87%29.90 "Hg10 mi
7:33 am66 °FDrizzle. More clouds than sun.7 mph88%29.90 "Hg10 mi
7:11 am66 °FOvercast.7 mph88%29.89 "Hg10 mi
6:56 am67 °FLight rain. Mostly cloudy.8 mph87%29.89 "Hg10 mi
6:05 am70 °FLight rain. Overcast.6 mph73%29.89 "Hg10 mi
5:56 am70 °FOvercast.6 mph71%29.89 "Hg10 mi
4:56 am71 °FOvercast.8 mph65%29.89 "Hg10 mi
3:56 am71 °FOvercast.9 mph63%29.89 "Hg10 mi
3:31 am72 °FOvercast.12 mph65%29.89 "Hg10 mi
3:21 am72 °FDrizzle. Overcast.10 mph65%29.90 "Hg10 mi
2:56 am72 °FOvercast.12 mph67%29.90 "Hg10 mi
Weather by CustomWeather, © 2020

See weather overview